Time,TemperatureF,DewpointF,PressureIn,WindDirection,WindDirectionDegrees,WindSpeedMPH,WindSpeedGustMPH,Humidity,HourlyPrecipIn,Conditions,Clouds,dailyrainin,SolarRadiationWatts/m^2,SoftwareType,DateUTC
2013-05-26 00:01:00,48.0,45.0,-100.00,ENE,58,6.0,12.0,88,0.00,,,0.00,1.000000,,2013-05-26 07:01:00,
2013-05-26 00:22:00,46.0,43.0,-100.00,ENE,60,5.0,10.0,90,0.00,,,0.00,1.000000,,2013-05-26 07:22:00,
2013-05-26 00:32:00,46.0,43.0,-100.00,ENE,60,5.0,10.0,90,0.00,,,0.00,1.000000,,2013-05-26 07:32:00,
2013-05-26 00:42:00,46.0,43.0,-100.00,ENE,60,5.0,10.0,90,0.00,,,0.00,1.000000,,2013-05-26 07:42:00,
2013-05-26 00:52:00,46.0,43.0,-100.00,ENE,60,5.0,10.0,90,0.00,,,0.00,1.000000,,2013-05-26 07:52:00,
2013-05-26 01:01:00,46.0,43.0,-100.00,ENE,60,5.0,10.0,90,0.00,,,0.00,1.000000,,2013-05-26 08:01:00,
2013-05-26 01:22:00,47.0,44.0,-100.00,NNE,21,1.0,7.0,88,0.00,,,0.00,1.000000,,2013-05-26 08:22:00,
2013-05-26 01:32:00,47.0,44.0,-100.00,NNE,21,1.0,7.0,88,0.00,,,0.00,1.000000,,2013-05-26 08:32:00,
2013-05-26 01:42:00,47.0,44.0,-100.00,NNE,21,1.0,7.0,88,0.00,,,0.00,1.000000,,2013-05-26 08:42:00,
2013-05-26 01:53:00,47.0,44.0,-100.00,NNE,21,1.0,7.0,88,0.00,,,0.00,1.000000,,2013-05-26 08:53:00,
2013-05-26 02:01:00,47.0,44.0,-100.00,NNE,21,1.0,7.0,88,0.00,,,0.00,1.000000,,2013-05-26 09:01:00,
2013-05-26 02:02:00,47.0,45.0,-100.00,SW,224,3.0,5.0,91,0.00,,,0.00,1.000000,,2013-05-26 09:02:00,
2013-05-26 02:22:00,47.0,45.0,-100.00,SW,224,3.0,5.0,91,0.00,,,0.00,1.000000,,2013-05-26 09:22:00,
2013-05-26 02:33:00,47.0,45.0,-100.00,SW,224,3.0,5.0,91,0.00,,,0.00,1.000000,,2013-05-26 09:33:00,
2013-05-26 02:43:00,47.0,45.0,-100.00,SW,224,3.0,5.0,91,0.00,,,0.00,1.000000,,2013-05-26 09:43:00,
2013-05-26 02:53:00,47.0,45.0,-100.00,SW,224,3.0,5.0,91,0.00,,,0.00,1.000000,,2013-05-26 09:53:00,
2013-05-26 03:02:00,47.0,45.0,-100.00,SW,223,6.0,10.0,94,0.01,,,0.01,1.000000,,2013-05-26 10:02:00,
2013-05-26 03:23:00,47.0,45.0,-100.00,SW,223,6.0,10.0,94,0.01,,,0.01,1.000000,,2013-05-26 10:23:00,
2013-05-26 03:33:00,47.0,45.0,-100.00,SW,223,6.0,10.0,94,0.01,,,0.01,1.000000,,2013-05-26 10:33:00,
2013-05-26 03:42:00,47.0,45.0,-100.00,SW,223,6.0,10.0,94,0.01,,,0.01,1.000000,,2013-05-26 10:42:00,
2013-05-26 03:52:00,47.0,45.0,-100.00,SW,223,6.0,10.0,94,0.01,,,0.01,1.000000,,2013-05-26 10:52:00,
2013-05-26 04:22:00,47.0,46.0,-100.00,SSE,148,2.0,8.0,98,0.04,,,0.05,1.000000,,2013-05-26 11:22:00,
2013-05-26 04:32:00,47.0,46.0,-100.00,SSE,148,2.0,8.0,98,0.04,,,0.05,1.000000,,2013-05-26 11:32:00,
2013-05-26 04:42:00,47.0,46.0,-100.00,SSE,148,2.0,8.0,98,0.04,,,0.05,1.000000,,2013-05-26 11:42:00,
2013-05-26 04:52:00,47.0,46.0,-100.00,SSE,148,2.0,8.0,98,0.04,,,0.05,1.000000,,2013-05-26 11:52:00,
2013-05-26 05:01:00,47.0,46.0,-100.00,SSE,148,2.0,8.0,98,0.04,,,0.05,1.000000,,2013-05-26 12:01:00,
2013-05-26 05:02:00,46.0,46.0,-100.00,ENE,61,1.0,6.0,99,0.01,,,0.06,1.000000,,2013-05-26 12:02:00,
2013-05-26 05:22:00,46.0,46.0,-100.00,ENE,61,1.0,6.0,99,0.01,,,0.06,1.000000,,2013-05-26 12:22:00,
2013-05-26 05:32:00,46.0,46.0,-100.00,ENE,61,1.0,6.0,99,0.01,,,0.06,1.000000,,2013-05-26 12:32:00,
2013-05-26 05:42:00,46.0,46.0,-100.00,ENE,61,1.0,6.0,99,0.01,,,0.06,1.000000,,2013-05-26 12:42:00,
2013-05-26 05:52:00,46.0,46.0,-100.00,ENE,61,1.0,6.0,99,0.01,,,0.06,1.000000,,2013-05-26 12:52:00,
2013-05-26 06:22:00,46.0,46.0,-100.00,WSW,240,0.0,5.0,100,0.03,,,0.09,2.000000,,2013-05-26 13:22:00,
2013-05-26 06:32:00,46.0,46.0,-100.00,WSW,240,0.0,5.0,100,0.03,,,0.09,2.000000,,2013-05-26 13:32:00,
2013-05-26 06:42:00,46.0,46.0,-100.00,WSW,240,0.0,5.0,100,0.03,,,0.09,2.000000,,2013-05-26 13:42:00,
2013-05-26 06:52:00,46.0,46.0,-100.00,WSW,240,0.0,5.0,100,0.03,,,0.09,2.000000,,2013-05-26 13:52:00,
2013-05-26 07:01:00,46.0,46.0,-100.00,WSW,240,0.0,5.0,100,0.03,,,0.09,2.000000,,2013-05-26 14:01:00,
2013-05-26 07:22:00,47.0,47.0,-100.00,SSW,207,2.0,4.0,99,0.03,,,0.12,23.000000,,2013-05-26 14:22:00,
2013-05-26 07:32:00,47.0,47.0,-100.00,SSW,207,2.0,4.0,99,0.03,,,0.12,23.000000,,2013-05-26 14:32:00,
2013-05-26 07:42:00,47.0,47.0,-100.00,SSW,207,2.0,4.0,99,0.03,,,0.12,23.000000,,2013-05-26 14:42:00,
2013-05-26 07:52:00,47.0,47.0,-100.00,SSW,207,2.0,4.0,99,0.03,,,0.12,23.000000,,2013-05-26 14:52:00,
2013-05-26 08:01:00,47.0,47.0,-100.00,SSW,207,2.0,4.0,99,0.03,,,0.12,23.000000,,2013-05-26 15:01:00,
2013-05-26 08:02:00,49.0,45.0,-100.00,SW,233,5.0,8.0,87,0.00,,,0.12,145.000000,,2013-05-26 15:02:00,
2013-05-26 08:22:00,49.0,45.0,-100.00,SW,233,5.0,8.0,87,0.00,,,0.12,145.000000,,2013-05-26 15:22:00,
2013-05-26 08:33:00,49.0,45.0,-100.00,SW,233,5.0,8.0,87,0.00,,,0.12,145.000000,,2013-05-26 15:33:00,
2013-05-26 08:43:00,49.0,45.0,-100.00,SW,233,5.0,8.0,87,0.00,,,0.12,145.000000,,2013-05-26 15:43:00,
2013-05-26 08:53:00,49.0,45.0,-100.00,SW,233,5.0,8.0,87,0.00,,,0.12,145.000000,,2013-05-26 15:53:00,
2013-05-26 09:02:00,49.0,45.0,-100.00,SW,224,7.0,18.0,86,0.00,,,0.12,273.000000,,2013-05-26 16:02:00,
2013-05-26 09:23:00,49.0,45.0,-100.00,SW,224,7.0,18.0,86,0.00,,,0.12,273.000000,,2013-05-26 16:23:00,
2013-05-26 09:33:00,49.0,45.0,-100.00,SW,224,7.0,18.0,86,0.00,,,0.12,273.000000,,2013-05-26 16:33:00,
2013-05-26 09:42:00,49.0,45.0,-100.00,SW,224,7.0,18.0,86,0.00,,,0.12,273.000000,,2013-05-26 16:42:00,
2013-05-26 09:53:00,49.0,45.0,-100.00,SW,224,7.0,18.0,86,0.00,,,0.12,273.000000,,2013-05-26 16:53:00,
2013-05-26 10:23:00,51.0,43.0,-100.00,WSW,242,5.0,12.0,75,0.00,,,0.12,368.000000,,2013-05-26 17:23:00,
2013-05-26 10:32:00,51.0,43.0,-100.00,WSW,242,5.0,12.0,75,0.00,,,0.12,368.000000,,2013-05-26 17:32:00,
2013-05-26 10:42:00,51.0,43.0,-100.00,WSW,242,5.0,12.0,75,0.00,,,0.12,368.000000,,2013-05-26 17:42:00,
2013-05-26 10:52:00,51.0,43.0,-100.00,WSW,242,5.0,12.0,75,0.00,,,0.12,368.000000,,2013-05-26 17:52:00,
2013-05-26 11:01:00,51.0,43.0,-100.00,WSW,242,5.0,12.0,75,0.00,,,0.12,368.000000,,2013-05-26 18:01:00,
2013-05-26 11:22:00,55.0,41.0,-100.00,WNW,293,6.0,14.0,60,0.00,,,0.12,705.000000,,2013-05-26 18:22:00,
2013-05-26 11:32:00,55.0,41.0,-100.00,WNW,293,6.0,14.0,60,0.00,,,0.12,705.000000,,2013-05-26 18:32:00,
2013-05-26 11:42:00,55.0,41.0,-100.00,WNW,293,6.0,14.0,60,0.00,,,0.12,705.000000,,2013-05-26 18:42:00,
2013-05-26 11:52:00,55.0,41.0,-100.00,WNW,293,6.0,14.0,60,0.00,,,0.12,705.000000,,2013-05-26 18:52:00,
2013-05-26 12:01:00,55.0,41.0,-100.00,WNW,293,6.0,14.0,60,0.00,,,0.12,705.000000,,2013-05-26 19:01:00,
2013-05-26 12:22:00,57.0,40.0,-100.00,WSW,253,10.0,17.0,52,0.00,,,0.12,639.000000,,2013-05-26 19:22:00,
2013-05-26 12:32:00,57.0,40.0,-100.00,WSW,253,10.0,17.0,52,0.00,,,0.12,639.000000,,2013-05-26 19:32:00,
2013-05-26 12:42:00,57.0,40.0,-100.00,WSW,253,10.0,17.0,52,0.00,,,0.12,639.000000,,2013-05-26 19:42:00,
2013-05-26 12:52:00,57.0,40.0,-100.00,WSW,253,10.0,17.0,52,0.00,,,0.12,639.000000,,2013-05-26 19:52:00,
2013-05-26 13:01:00,57.0,40.0,-100.00,WSW,253,10.0,17.0,52,0.00,,,0.12,639.000000,,2013-05-26 20:01:00,
2013-05-26 13:22:00,60.0,36.0,-100.00,West,259,7.0,19.0,41,0.00,,,0.12,911.000000,,2013-05-26 20:22:00,
2013-05-26 13:32:00,60.0,36.0,-100.00,West,259,7.0,19.0,41,0.00,,,0.12,911.000000,,2013-05-26 20:32:00,
2013-05-26 13:42:00,60.0,36.0,-100.00,West,259,7.0,19.0,41,0.00,,,0.12,911.000000,,2013-05-26 20:42:00,
2013-05-26 13:52:00,60.0,36.0,-100.00,West,259,7.0,19.0,41,0.00,,,0.12,911.000000,,2013-05-26 20:52:00,
2013-05-26 14:01:00,60.0,36.0,-100.00,West,259,7.0,19.0,41,0.00,,,0.12,911.000000,,2013-05-26 21:01:00,
2013-05-26 14:02:00,59.0,37.0,-100.00,WNW,298,12.0,20.0,43,0.00,,,0.12,865.000000,,2013-05-26 21:02:00,
2013-05-26 14:22:00,59.0,37.0,-100.00,WNW,298,12.0,20.0,43,0.00,,,0.12,865.000000,,2013-05-26 21:22:00,
2013-05-26 14:33:00,59.0,37.0,-100.00,WNW,298,12.0,20.0,43,0.00,,,0.12,865.000000,,2013-05-26 21:33:00,
2013-05-26 14:43:00,59.0,37.0,-100.00,WNW,298,12.0,20.0,43,0.00,,,0.12,865.000000,,2013-05-26 21:43:00,
2013-05-26 14:53:00,59.0,37.0,-100.00,WNW,298,12.0,20.0,43,0.00,,,0.12,865.000000,,2013-05-26 21:53:00,
2013-05-26 15:02:00,59.0,35.0,-100.00,WNW,282,9.0,21.0,41,0.00,,,0.12,495.000000,,2013-05-26 22:02:00,
2013-05-26 15:23:00,59.0,35.0,-100.00,WNW,282,9.0,21.0,41,0.00,,,0.12,495.000000,,2013-05-26 22:23:00,
2013-05-26 15:33:00,59.0,35.0,-100.00,WNW,282,9.0,21.0,41,0.00,,,0.12,495.000000,,2013-05-26 22:33:00,
2013-05-26 15:42:00,59.0,35.0,-100.00,WNW,282,9.0,21.0,41,0.00,,,0.12,495.000000,,2013-05-26 22:42:00,
2013-05-26 15:53:00,59.0,35.0,-100.00,WNW,282,9.0,21.0,41,0.00,,,0.12,495.000000,,2013-05-26 22:53:00,
2013-05-26 16:02:00,60.0,36.0,-100.00,West,266,15.0,23.0,40,0.00,,,0.12,745.000000,,2013-05-26 23:02:00,
2013-05-26 16:22:00,60.0,36.0,-100.00,West,266,15.0,23.0,40,0.00,,,0.12,745.000000,,2013-05-26 23:22:00,
2013-05-26 16:32:00,60.0,36.0,-100.00,West,266,15.0,23.0,40,0.00,,,0.12,745.000000,,2013-05-26 23:32:00,
2013-05-26 16:43:00,60.0,36.0,-100.00,West,266,15.0,23.0,40,0.00,,,0.12,745.000000,,2013-05-26 23:43:00,
2013-05-26 16:52:00,60.0,36.0,-100.00,West,266,15.0,23.0,40,0.00,,,0.12,745.000000,,2013-05-26 23:52:00,
2013-05-26 17:22:00,60.0,37.0,-100.00,West,272,15.0,23.0,43,0.00,,,0.12,630.000000,,2013-05-27 00:22:00,
2013-05-26 17:32:00,60.0,37.0,-100.00,West,272,15.0,23.0,43,0.00,,,0.12,630.000000,,2013-05-27 00:32:00,
2013-05-26 17:42:00,60.0,37.0,-100.00,West,272,15.0,23.0,43,0.00,,,0.12,630.000000,,2013-05-27 00:42:00,
2013-05-26 17:52:00,60.0,37.0,-100.00,West,272,15.0,23.0,43,0.00,,,0.12,630.000000,,2013-05-27 00:52:00,
2013-05-26 18:01:00,60.0,37.0,-100.00,West,272,15.0,23.0,43,0.00,,,0.12,630.000000,,2013-05-27 01:01:00,
2013-05-26 18:22:00,59.0,37.0,-100.00,West,267,13.0,25.0,44,0.00,,,0.12,547.000000,,2013-05-27 01:22:00,
2013-05-26 18:32:00,59.0,37.0,-100.00,West,267,13.0,25.0,44,0.00,,,0.12,547.000000,,2013-05-27 01:32:00,
2013-05-26 18:42:00,59.0,37.0,-100.00,West,267,13.0,25.0,44,0.00,,,0.12,547.000000,,2013-05-27 01:42:00,
2013-05-26 18:52:00,59.0,37.0,-100.00,West,267,13.0,25.0,44,0.00,,,0.12,547.000000,,2013-05-27 01:52:00,
2013-05-26 19:01:00,59.0,37.0,-100.00,West,267,13.0,25.0,44,0.00,,,0.12,547.000000,,2013-05-27 02:01:00,
2013-05-26 19:02:00,58.0,38.0,-100.00,West,272,9.0,20.0,47,0.00,,,0.12,346.000000,,2013-05-27 02:02:00,
2013-05-26 19:22:00,58.0,38.0,-100.00,West,272,9.0,20.0,47,0.00,,,0.12,346.000000,,2013-05-27 02:22:00,
2013-05-26 19:32:00,58.0,38.0,-100.00,West,272,9.0,20.0,47,0.00,,,0.12,346.000000,,2013-05-27 02:32:00,
2013-05-26 19:42:00,58.0,38.0,-100.00,West,272,9.0,20.0,47,0.00,,,0.12,346.000000,,2013-05-27 02:42:00,
2013-05-26 19:52:00,58.0,38.0,-100.00,West,272,9.0,20.0,47,0.00,,,0.12,346.000000,,2013-05-27 02:52:00,
2013-05-26 20:02:00,52.0,39.0,-100.00,WSW,257,8.0,20.0,60,0.00,,,0.12,141.000000,,2013-05-27 03:02:00,
2013-05-26 20:21:00,52.0,39.0,-100.00,WSW,257,8.0,20.0,60,0.00,,,0.12,141.000000,,2013-05-27 03:21:00,
2013-05-26 20:33:00,52.0,39.0,-100.00,WSW,257,8.0,20.0,60,0.00,,,0.12,141.000000,,2013-05-27 03:33:00,
2013-05-26 20:43:00,52.0,39.0,-100.00,WSW,257,8.0,20.0,60,0.00,,,0.12,141.000000,,2013-05-27 03:43:00,
2013-05-26 20:53:00,52.0,39.0,-100.00,WSW,257,8.0,20.0,60,0.00,,,0.12,141.000000,,2013-05-27 03:53:00,
2013-05-26 21:02:00,49.0,39.0,-100.00,SSW,205,5.0,11.0,68,0.00,,,0.12,18.000000,,2013-05-27 04:02:00,
2013-05-26 21:23:00,49.0,39.0,-100.00,SSW,205,5.0,11.0,68,0.00,,,0.12,18.000000,,2013-05-27 04:23:00,
2013-05-26 21:33:00,49.0,39.0,-100.00,SSW,205,5.0,11.0,68,0.00,,,0.12,18.000000,,2013-05-27 04:33:00,
2013-05-26 21:43:00,49.0,39.0,-100.00,SSW,205,5.0,11.0,68,0.00,,,0.12,18.000000,,2013-05-27 04:43:00,
2013-05-26 21:52:00,49.0,39.0,-100.00,SSW,205,5.0,11.0,68,0.00,,,0.12,18.000000,,2013-05-27 04:52:00,
2013-05-26 22:22:00,49.0,39.0,-100.00,SW,222,6.0,12.0,69,0.00,,,0.12,1.000000,,2013-05-27 05:22:00,
2013-05-26 22:32:00,49.0,39.0,-100.00,SW,222,6.0,12.0,69,0.00,,,0.12,1.000000,,2013-05-27 05:32:00,
2013-05-26 22:42:00,49.0,39.0,-100.00,SW,222,6.0,12.0,69,0.00,,,0.12,1.000000,,2013-05-27 05:42:00,
2013-05-26 22:52:00,49.0,39.0,-100.00,SW,222,6.0,12.0,69,0.00,,,0.12,1.000000,,2013-05-27 05:52:00,
2013-05-26 23:01:00,49.0,39.0,-100.00,SW,222,6.0,12.0,69,0.00,,,0.12,1.000000,,2013-05-27 06:01:00,
2013-05-26 23:22:00,47.0,39.0,-100.00,SSW,211,4.0,8.0,74,0.00,,,0.12,1.000000,,2013-05-27 06:22:00,
2013-05-26 23:32:00,47.0,39.0,-100.00,SSW,211,4.0,8.0,74,0.00,,,0.12,1.000000,,2013-05-27 06:32:00,
2013-05-26 23:42:00,47.0,39.0,-100.00,SSW,211,4.0,8.0,74,0.00,,,0.12,1.000000,,2013-05-27 06:42:00,
2013-05-26 23:52:00,47.0,39.0,-100.00,SSW,211,4.0,8.0,74,0.00,,,0.12,1.000000,,2013-05-27 06:52:00,